Weather History for Karlovy Vary, Czech Republic

Change the Weather History Date:

Tuesday, March 26, 2013

  Actual Average (EDQM) Record (EDQM)
Temperature  
Mean Temperature 24 °F -  
Max Temperature 28 °F 46 °F 57 °F (1999)
Min Temperature 19 °F 32 °F 16 °F (2013)
Degree Days  
Heating Degree Days 42    
Moisture  
Dew Point 8 °F    
Average Humidity 53    
Maximum Humidity 74    
Minimum Humidity 37    
Precipitation  
Precipitation 0.00 in - - ()
Sea Level Pressure  
Sea Level Pressure 29.78 in    
Wind  
Wind Speed 10 mph ()    
Max Wind Speed 15 mph    
Max Gust Speed -    
Visibility 6.2 miles    
Events Snow    
Averages and records for this station are not official NWS values.
T = Trace of Precipitation, MM = Missing Value Source: Averaged Metar Reports

Daily Weather History Graph

Daily Weather History Graph

Search for Another Location

Airport:

Trip Planner

Search our weather history database for the weather conditions in past years. The results will help you decide how hot, cold, wet, or windy it might be!

Date:

Astronomy

Mar. 26, 2013 Rise Set
Actual Time 5:57 AM CET 6:30 PM CET
Civil Twilight 5:25 AM CET 7:03 PM CET
Nautical Twilight 4:46 AM CET 7:42 PM CET
Astronomical Twilight 4:06 AM CET 8:23 PM CET
Moon 5:48 PM CET (3/26) 5:08 AM CET (3/26)
Length of Visible Light 13h 38m
Length of Day
12h 33m
Waxing Gibbous, 99% of the Moon is Illuminated
Mar 26
Waxing Gibbous
Mar 27
Full
Apr 3
Last Quarter
Apr 10
New
Apr 18
First Quarter

Hourly Weather History & Observations

Time (CET) Temp. Windchill Dew Point Humidity Pressure Visibility Wind Dir Wind Speed Gust Speed Precip Events Conditions
12:00 AM 21.2 °F 11.7 °F 12.2 °F 68% 29.83 in 6.2 mi ENE 8.1 mph - N/A Snow Light Snow
1:00 AM 19.4 °F 9.5 °F 12.2 °F 74% 29.80 in 6.2 mi ENE 8.1 mph - N/A   Mostly Cloudy
2:00 AM 19.4 °F 8.6 °F 12.2 °F 74% 29.80 in - ENE 9.2 mph - N/A   Clear
3:00 AM 19.4 °F 8.6 °F 12.2 °F 74% 29.80 in - ENE 9.2 mph - N/A   Clear
4:00 AM 19.4 °F 9.5 °F 10.4 °F 68% 29.77 in - ENE 8.1 mph - N/A   Clear
5:00 AM 19.4 °F 9.5 °F 10.4 °F 68% 29.77 in - ENE 8.1 mph - N/A   Clear
5:30 AM 19.4 °F 8.6 °F 10.4 °F 68% 29.77 in - ENE 9.2 mph - N/A   Clear
6:00 AM 19.4 °F 8.6 °F 8.6 °F 63% 29.77 in - ENE 9.2 mph - N/A   Clear
6:30 AM 19.4 °F 8.6 °F 8.6 °F 63% 29.77 in - ENE 9.2 mph - N/A   Clear
7:00 AM 19.4 °F 7.9 °F 10.4 °F 68% 29.77 in - ENE 10.4 mph - N/A   Clear
7:30 AM 19.4 °F 6.6 °F 10.4 °F 68% 29.77 in - NE 12.7 mph - N/A   Clear
8:00 AM 19.4 °F 7.9 °F 10.4 °F 68% 29.77 in - ENE 10.4 mph - N/A   Clear
8:30 AM 21.2 °F 10.1 °F 8.6 °F 58% 29.77 in - ENE 10.4 mph - N/A   Clear
9:00 AM 21.2 °F 10.9 °F 8.6 °F 58% 29.77 in - ENE 9.2 mph - N/A   Clear
9:30 AM 23.0 °F 11.7 °F 8.6 °F 54% 29.77 in - ENE 11.5 mph - N/A   Clear
10:00 AM 23.0 °F 12.4 °F 8.6 °F 54% 29.77 in - ENE 10.4 mph - N/A   Clear
10:30 AM 24.8 °F 14.6 °F 8.6 °F 50% 29.77 in - ENE 10.4 mph - N/A   Clear
11:00 AM 24.8 °F 14.6 °F 8.6 °F 50% 29.77 in - ENE 10.4 mph - N/A   Clear
11:30 AM 24.8 °F 14.0 °F 6.8 °F 46% 29.77 in - ENE 11.5 mph - N/A   Clear
12:00 PM 24.8 °F 12.4 °F 6.8 °F 46% 29.77 in - ENE 15.0 mph - N/A   Clear
12:30 PM 26.6 °F 15.7 °F 5.0 °F 40% 29.77 in - NE 12.7 mph - N/A   Clear
1:00 PM 26.6 °F 14.7 °F 5.0 °F 40% 29.77 in - ENE 15.0 mph - N/A   Clear
1:30 PM 26.6 °F 15.2 °F 5.0 °F 40% 29.77 in - ENE 13.8 mph - N/A   Clear
2:00 PM 28.4 °F 17.0 °F 5.0 °F 37% 29.77 in - ENE 15.0 mph - N/A   Clear
2:30 PM 26.6 °F 14.7 °F 5.0 °F 40% 29.77 in - NE 15.0 mph - N/A   Clear
3:00 PM 26.6 °F 15.2 °F 5.0 °F 40% 29.77 in - ENE 13.8 mph - N/A   Clear
3:30 PM 26.6 °F 15.2 °F 5.0 °F 40% 29.77 in - NE 13.8 mph - N/A   Clear
4:00 PM 26.6 °F 15.2 °F 5.0 °F 40% 29.77 in - NE 13.8 mph - N/A   Clear
4:30 PM 26.6 °F 15.2 °F 5.0 °F 40% 29.77 in - NE 13.8 mph - N/A   Clear
5:00 PM 26.6 °F 15.7 °F 5.0 °F 40% 29.77 in - ENE 12.7 mph - N/A   Clear
5:30 PM 26.6 °F 15.7 °F 6.8 °F 43% 29.77 in - ENE 12.7 mph - N/A   Clear
6:00 PM 24.8 °F 13.4 °F 5.0 °F 43% 29.77 in - ENE 12.7 mph - N/A   Clear
6:30 PM 24.8 °F 14.0 °F 6.8 °F 46% 29.80 in - ENE 11.5 mph - N/A   Clear
7:00 PM 24.8 °F 13.4 °F 6.8 °F 46% 29.80 in - ENE 12.7 mph - N/A   Clear
7:30 PM 24.8 °F 14.0 °F 6.8 °F 46% 29.80 in - ENE 11.5 mph - N/A   Clear
8:00 PM 23.0 °F 11.7 °F 6.8 °F 50% 29.80 in - ENE 11.5 mph - N/A   Clear
9:00 PM 23.0 °F 12.4 °F 8.6 °F 54% 29.80 in - ENE 10.4 mph - N/A   Clear
10:00 PM 23.0 °F 13.1 °F 8.6 °F 54% 29.83 in 6.2 mi NE 9.2 mph - N/A   Scattered Clouds
11:00 PM 21.2 °F 11.7 °F 8.6 °F 58% 29.80 in - NE 8.1 mph - N/A   Clear